Weather History for Nasa Shuttle, FL

Change the Weather History Date:

Tuesday, March 19, 2013

  Actual Average Record
Temperature  
Mean Temperature 74 °F -  
Max Temperature 86 °F 73 °F 86 °F (2013)
Min Temperature 62 °F 56 °F 44 °F (2005)
Cooling Degree Days 9    
Growing Degree Days 24 (Base 50)    
Moisture  
Dew Point 63 °F    
Average Humidity 81    
Maximum Humidity 100    
Minimum Humidity 39    
Precipitation  
Precipitation 0.00 in - - ()
Sea Level Pressure  
Sea Level Pressure 29.96 in    
Wind  
Wind Speed 5 mph (NE)    
Max Wind Speed 14 mph    
Max Gust Speed -    
Visibility 9 miles    
Events      
Averages and records for this station are not official NWS values.
T = Trace of Precipitation, MM = Missing Value Source: NWS Daily Summary

Daily Weather History Graph

Daily Weather History Graph

Search for Another Location

Airport:

Trip Planner

Search our weather history database for the weather conditions in past years. The results will help you decide how hot, cold, wet, or windy it might be!

Date:

Astronomy

Mar. 19, 2013 Rise Set
Actual Time 7:27 AM EDT 7:33 PM EDT
Civil Twilight 7:03 AM EDT 7:57 PM EDT
Nautical Twilight 6:36 AM EDT 8:24 PM EDT
Astronomical Twilight 6:09 AM EDT 8:52 PM EDT
Moon 12:42 PM EDT (3/19) 1:53 AM EDT (3/19)
Length of Visible Light 12h 53m
Length of Day
12h 06m
Waxing Crescent, 49% of the Moon is Illuminated
Mar 19
Waxing Crescent
Mar 19
First Quarter
Mar 27
Full
Apr 3
Last Quarter
Apr 10
New

Hourly Weather History & Observations

Time (EDT) Temp. Heat Index Dew Point Humidity Pressure Visibility Wind Dir Wind Speed Gust Speed Precip Events Conditions
12:58 AM 68.4 °F - 64.4 °F 87% 29.94 in 10.0 mi SW 6.9 mph - N/A   Clear
1:58 AM 67.5 °F - 64.4 °F 90% 29.93 in 10.0 mi West 4.6 mph - N/A   Clear
2:58 AM 65.5 °F - 64.0 °F 95% 29.96 in 10.0 mi North 4.6 mph - N/A   Clear
3:58 AM 64.4 °F - 64.0 °F 99% 29.96 in 10.0 mi Calm Calm - N/A   Scattered Clouds
4:58 AM 63.3 °F - 63.0 °F 99% 29.95 in 10.0 mi NNE 2.3 mph - N/A   Scattered Clouds
5:13 AM 62.6 °F - 62.6 °F 100% 29.95 in 10.0 mi Variable 1.2 mph - N/A   Mostly Cloudy
5:23 AM 64.4 °F - 64.4 °F 100% 29.95 in 10.0 mi North 4.6 mph - N/A   Scattered Clouds
5:28 AM 64.4 °F - 64.4 °F 100% 29.95 in 10.0 mi NNE 2.3 mph - N/A   Mostly Cloudy
5:33 AM 64.4 °F - 64.4 °F 100% 29.94 in 10.0 mi NNE 3.5 mph - N/A   Scattered Clouds
5:58 AM 64.0 °F - 63.9 °F 99% 29.94 in 10.0 mi NE 5.8 mph - N/A   Clear
6:58 AM 64.6 °F - 64.2 °F 99% 29.97 in 10.0 mi NE 8.1 mph - N/A   Scattered Clouds
7:08 AM 64.4 °F - 64.4 °F 100% 29.96 in 10.0 mi NE 8.1 mph - N/A   Mostly Cloudy
7:13 AM 64.4 °F - 64.4 °F 100% 29.96 in 10.0 mi NE 5.8 mph - N/A   Scattered Clouds
7:48 AM 64.4 °F - 62.6 °F 94% 29.99 in 10.0 mi NNW 3.5 mph - N/A   Mostly Cloudy
7:58 AM 64.0 °F - 63.5 °F 98% 29.99 in 10.0 mi NNW 3.5 mph - N/A   Mostly Cloudy
8:38 AM 66.2 °F - 64.4 °F 94% 29.99 in 10.0 mi SSW 5.8 mph - N/A   Scattered Clouds
8:58 AM 65.8 °F - 64.0 °F 94% 30.00 in 10.0 mi Calm Calm - N/A   Clear
9:58 AM 69.1 °F - 63.7 °F 83% 30.03 in 10.0 mi NNW 6.9 mph - N/A   Partly Cloudy
10:58 AM 73.6 °F - 61.0 °F 65% 30.00 in 10.0 mi ENE 5.8 mph - N/A   Clear
11:58 AM 75.9 °F - 59.7 °F 57% 29.98 in 4.0 mi Variable 2.3 mph - N/A   Haze
12:08 PM 77.0 °F - 60.8 °F 57% 29.98 in 2.5 mi Variable 3.5 mph - N/A   Haze
12:23 PM 77.0 °F - 60.8 °F 57% 29.98 in 3.0 mi SSE 6.9 mph - N/A   Haze
12:58 PM 79.2 °F - 61.9 °F 55% 30.00 in 8.0 mi WSW 10.4 mph - N/A   Clear
1:58 PM 80.2 °F 80.9 °F 59.7 °F 49% 29.95 in 10.0 mi SW 4.6 mph - N/A   Scattered Clouds
2:58 PM 84.0 °F 83.8 °F 59.0 °F 43% 29.92 in 10.0 mi SSW 6.9 mph - N/A   Partly Cloudy
3:58 PM 84.7 °F 83.9 °F 57.0 °F 39% 29.91 in 10.0 mi WSW 4.6 mph - N/A   Clear
4:18 PM 86.0 °F 85.4 °F 59.0 °F 40% 29.90 in 10.0 mi East 13.8 mph - N/A   Scattered Clouds
4:58 PM 82.8 °F 83.4 °F 61.9 °F 49% 29.91 in 10.0 mi East 6.9 mph - N/A   Mostly Cloudy
5:58 PM 78.4 °F - 64.2 °F 62% 29.92 in 10.0 mi East 6.9 mph - N/A   Mostly Cloudy
6:58 PM 74.5 °F - 63.9 °F 69% 29.93 in 10.0 mi East 11.5 mph - N/A   Scattered Clouds
7:58 PM 70.9 °F - 64.8 °F 81% 29.95 in 10.0 mi East 4.6 mph - N/A   Overcast
8:58 PM 68.2 °F - 64.0 °F 87% 29.96 in 10.0 mi East 5.8 mph - N/A   Partly Cloudy
9:58 PM 67.8 °F - 64.9 °F 90% 29.97 in 10.0 mi ENE 3.5 mph - N/A   Mostly Cloudy
10:58 PM 65.5 °F - 64.0 °F 95% 29.97 in 10.0 mi NNE 5.8 mph - N/A   Clear
11:58 PM 65.3 °F - 63.9 °F 95% 29.99 in 10.0 mi NNE 4.6 mph - N/A   Partly Cloudy